« Back
NWS Peachtree City, Ga » Text Product » GA Regional Weather Roundup


Printer-friendly Version
Current Version              Previous Versions:   1  2  3  4  5  6  7  8  9  

Regional Weather Roundup

132
ASUS42 KFFC 242103
RWRGA
WEATHER ROUNDUP FOR GEORGIA
NATIONAL WEATHER SERVICE PEACHTREE CITY GA
500 PM EDT THU APR 24 2014

NOTE: "FAIR" INDICATES FEW OR NO CLOUDS BELOW 12,000 FEET WITH NO
SIGNIFICANT WEATHER AND/OR OBSTRUCTIONS TO VISIBILITY.

* = USE WITH CAUTION. THE STATIONS MARKED WITH AN ASTERISK MAY NOT
REPORT WEATHER SUCH AS PRECIPITATION, FOG, OR THUNDER AND ARE NOT
QUALITY CONTROLLED BY NWS.

THE REMARK "TC" DENOTES TEMPERATURE READING IN DEGREES CELSIUS.

GAZ001>058-242200-
NORTH GEORGIA

CITY           SKY/WX    TMP DP  RH WIND       PRES   REMARKS
ATLANTA        MOSUNNY   78  48  34 SW8       29.94F
ATHENS         SUNNY     79  44  28 VRB6      29.96F
CHAMBLEE       PTSUNNY   76  47  35 VRB5      29.95F
PEACHTREE CITY PTSUNNY   82  48  30 W5        29.94F
ROME           MOSUNNY   79  49  34 W7        29.91F
WEST ATLANTA   PTSUNNY   79  47  32 SW7       29.94F
GAINESVILLE    SUNNY     75  41  29 CALM      29.99F
CARTERSVILLE   PTSUNNY   81  47  30 CALM      29.93F


CITY           SKY/WX    TMP DP  RH WIND       PRES   REMARKS
DALTON*        SUNNY     79  48  34 CALM      29.93F
LAWRENCEVILLE* SUNNY     79  45  29 CALM      29.96F
MARIETTA       PTSUNNY   79  48  34 VRB3      29.94F
KENNESAW*      MOSUNNY   79  50  36 S10G20    29.95F
$$

GAZ059>098-102>109-242200-
CENTRAL GEORGIA

CITY           SKY/WX    TMP DP  RH WIND       PRES   REMARKS
AUGUSTA-BUSH   SUNNY     82  45  27 SW13      29.94F
AUGUSTA-DANIEL SUNNY     83  45  26 VRB5      29.95F
COLUMBUS       MOSUNNY   81  49  32 S12       29.92F
MACON          MOSUNNY   82  49  31 SW13      29.93F
ROBINS AFB     MOSUNNY   82  51  34 S8        29.93F


CITY           SKY/WX    TMP DP  RH WIND       PRES   REMARKS
LAGRANGE*      MOSUNNY   82  53  35 SW7       29.93F
SYLVANIA*      PTSUNNY   80  60  51 SE8       29.96S
MILLEDGEVILLE* MOSUNNY   86  21   9 W5        29.94S
$$

GAZ099>101-110>166-242200-
SOUTH GEORGIA

CITY           SKY/WX    TMP DP  RH WIND       PRES   REMARKS
SAVANNAH       PTSUNNY   75  60  59 SE14      29.97F
VALDOSTA       MOSUNNY   88  59  37 VRB3      29.92F
ALMA           PTSUNNY   82  54  37 SE3       29.93F
ST SIMONS      MOSUNNY   76  68  76 SE10      29.95F
FT STEWART     PTSUNNY   76  67  73 E7        29.95S
ALBANY         SUNNY     83  56  39 CALM      29.94F
HUNTER AFB     MOSUNNY   72  62  71 E14       29.96F
BRUNSWICK      SUNNY     81  64  57 E9        29.95F


CITY           SKY/WX    TMP DP  RH WIND       PRES   REMARKS
BAINBRIDGE*    MOSUNNY   88  61  40 SW9       29.92F
MOULTRIE*      MOSUNNY   82  61  47 SW5       29.93F
VIDALIA*       PTSUNNY   82  52  34 SW6       29.95S
DOUGLAS*       SUNNY     84  55  37 SW6       29.94F
$$



USA.gov is the U.S. government's official web portal to all federal, state and local government web resources and services.